Location: Caltech
(34.1382°N, 118.1253°W)
Time: 02:25:51
(UTC-07:00)

COSMOS 2428 - Visible Passes

Search period start: 19 April 2015 00:00
Search period end: 29 April 2015 00:00
Orbit: 846 x 855 km, 71.0° (Epoch: 19 April)

Date Brightness Start Highest point End Pass type
(mag) Time Alt. Az. Time Alt. Az. Time Alt. Az.
19 Apr 2.8 05:42:26 10° SSW 05:48:06 89° ESE 05:53:49 10° NNE visible
20 Apr 2.8 05:30:04 10° SSW 05:35:44 88° ESE 05:41:27 10° NNE visible
21 Apr 2.7 05:17:42 10° SSW 05:23:22 88° ESE 05:29:05 10° NNE visible
22 Apr 2.7 05:05:20 10° SSW 05:10:59 88° ESE 05:16:43 10° NNE visible
23 Apr 2.7 04:53:36 13° SSW 04:58:38 88° ESE 05:04:21 10° NNE visible
24 Apr 2.7 04:42:10 20° SSW 04:46:15 87° ESE 04:51:59 10° NNE visible
25 Apr 2.7 04:30:38 27° SSW 04:33:54 87° ESE 04:39:37 10° NNE visible
26 Apr 2.6 04:19:02 35° SSW 04:21:31 87° ESE 04:27:15 10° NNE visible
27 Apr 2.6 04:07:21 46° SSW 04:09:09 87° ESE 04:14:52 10° NNE visible
28 Apr 2.6 03:55:36 58° SSW 03:56:47 86° ESE 04:02:30 10° NNE visible
